Вернуться в каталог

STARLINK-5338

АктивенСвязьVLEO
NORAD 55286·PAYLOAD·🇺🇸 United States

Запущен Jan 19, 2023 с Vandenberg Space Force Base

Loading…

Ближайшие Пролёты (ближайшие 24 часа)

TLE

СвежийSource: CelesTrak SupGP

Эпоха: Sep 14, 2026, 21:32 UTC

1 55286C 23010T   26257.89770833  .00064552  00000+0  54079-2 0  2574
2 55286  69.9994 267.4551 0004008 265.7158 294.4261 14.98308858    13

Отслеживайте STARLINK-5338 в реальном времени с AllMySat

Download on the App Store